| time (UTC) | temp C | wind direction | speed KPH | gust KPH | rain 1hr cm | rain 24hr cm | rain mn cm | humidity % | barometer mb |
| 20260510211339 | 18 | 272 | 3.2 | 8.0 | 0.00 | 0.03 | 0.03 | 61 | 1012.6 |
| 20260510210342 | 18 | 266 | 3.2 | 12.9 | 0.00 | 0.03 | 0.03 | 61 | 1012.4 |
| 20260510205347 | 18 | 265 | 6.4 | 12.9 | 0.00 | 0.03 | 0.03 | 62 | 1012.4 |
| 20260510204356 | 18 | 261 | 6.4 | 12.9 | 0.00 | 0.03 | 0.03 | 61 | 1012.3 |
| 20260510203339 | 18 | 252 | 8.0 | 14.5 | 0.00 | 0.03 | 0.03 | 61 | 1012.1 |
| 20260510202342 | 18 | 264 | 8.0 | 17.7 | 0.00 | 0.03 | 0.03 | 60 | 1012.1 |
| 20260510201351 | 19 | 264 | 8.0 | 19.3 | 0.00 | 0.03 | 0.03 | 59 | 1012.1 |
| 20260510200336 | 19 | 234 | 12.9 | 19.3 | 0.00 | 0.03 | 0.03 | 59 | 1011.9 |
| 20260510195341 | 19 | 265 | 14.5 | 22.5 | 0.00 | 0.03 | 0.03 | 58 | 1011.9 |
| 20260510194347 | 19 | 267 | 12.9 | 30.6 | 0.00 | 0.03 | 0.03 | 56 | 1011.8 |
| 20260510193352 | 20 | 245 | 14.5 | 25.7 | 0.00 | 0.03 | 0.03 | 54 | 1011.7 |
| 20260510192354 | 20 | 258 | 11.3 | 25.7 | 0.00 | 0.03 | 0.03 | 52 | 1011.7 |
| 20260510191338 | 20 | 259 | 9.7 | 16.1 | 0.00 | 0.03 | 0.03 | 49 | 1011.7 |
| 20260510190348 | 20 | 239 | 6.4 | 14.5 | 0.00 | 0.03 | 0.03 | 48 | 1011.5 |
| 20260510185350 | 20 | 257 | 8.0 | 20.9 | 0.00 | 0.03 | 0.03 | 47 | 1011.5 |
| 20260510184355 | 20 | 213 | 11.3 | 19.3 | 0.00 | 0.05 | 0.03 | 45 | 1011.2 |
| 20260510183345 | 21 | 231 | 9.7 | 19.3 | 0.00 | 0.05 | 0.03 | 43 | 1011.1 |
| 20260510182345 | 21 | 216 | 8.0 | 19.3 | 0.00 | 0.05 | 0.03 | 41 | 1011.0 |
| 20260510181354 | 21 | 224 | 11.3 | 22.5 | 0.00 | 0.05 | 0.03 | 40 | 1011.0 |
| 20260510180338 | 22 | 229 | 14.5 | 22.5 | 0.00 | 0.05 | 0.03 | 38 | 1010.7 |
| 20260510175343 | 22 | 251 | 9.7 | 19.3 | 0.00 | 0.05 | 0.03 | 38 | 1010.5 |
| 20260510174350 | 22 | 259 | 8.0 | 24.1 | 0.00 | 0.10 | 0.03 | 38 | 1010.4 |
| 20260510173339 | 22 | 276 | 9.7 | 24.1 | 0.00 | 0.10 | 0.03 | 37 | 1010.4 |
| 20260510172344 | 22 | 197 | 9.7 | 27.4 | 0.00 | 0.10 | 0.03 | 38 | 1010.2 |
| 20260510171354 | 22 | 209 | 14.5 | 25.7 | 0.00 | 0.10 | 0.03 | 39 | 1010.1 |
| 20260510170345 | 23 | 214 | 8.0 | 22.5 | 0.00 | 0.10 | 0.03 | 38 | 1010.1 |
| 20260510165349 | 23 | 208 | 14.5 | 20.9 | 0.00 | 0.10 | 0.03 | 40 | 1010.0 |
| 20260510164353 | 23 | 253 | 11.3 | 22.5 | 0.00 | 0.76 | 0.03 | 38 | 1010.0 |
| 20260510163337 | 23 | 255 | 6.4 | 22.5 | 0.00 | 0.76 | 0.03 | 39 | 1010.0 |
| 20260510162354 | 23 | 234 | 8.0 | 22.5 | 0.00 | 0.76 | 0.03 | 39 | 1009.9 |
| 20260510161342 | 23 | 249 | 8.0 | 19.3 | 0.00 | 0.76 | 0.03 | 40 | 1010.0 |
| 20260510160347 | 23 | 192 | 12.9 | 25.7 | 0.00 | 0.76 | 0.03 | 40 | 1009.9 |
| 20260510155350 | 23 | 220 | 14.5 | 32.2 | 0.00 | 0.76 | 0.03 | 40 | 1009.8 |
| 20260510154337 | 23 | 206 | 16.1 | 37.0 | 0.00 | 1.09 | 0.03 | 40 | 1009.8 |
| 20260510153342 | 23 | 214 | 19.3 | 27.4 | 0.00 | 1.09 | 0.03 | 40 | 1009.9 |
| 20260510152340 | 23 | 229 | 9.7 | 27.4 | 0.00 | 1.09 | 0.03 | 39 | 1010.0 |
| 20260510151340 | 23 | 193 | 12.9 | 33.8 | 0.00 | 1.09 | 0.03 | 39 | 1010.0 |
| 20260510150400 | 23 | 203 | 14.5 | 24.1 | 0.00 | 1.09 | 0.03 | 38 | 1010.3 |
| 20260510145356 | 24 | 265 | 11.3 | 20.9 | 0.00 | 1.09 | 0.03 | 40 | 1010.2 |
| 20260510144340 | 23 | 271 | 9.7 | 25.7 | 0.00 | 1.45 | 0.03 | 41 | 1010.2 |
| 20260510143344 | 23 | 211 | 8.0 | 29.0 | 0.00 | 1.45 | 0.03 | 42 | 1010.5 |
| 20260510142340 | 23 | 276 | 14.5 | 27.4 | 0.00 | 1.45 | 0.03 | 44 | 1010.7 |
| 20260510141341 | 23 | 191 | 11.3 | 20.9 | 0.00 | 1.45 | 0.03 | 45 | 1010.6 |
| 20260510140341 | 24 | 239 | 9.7 | 17.7 | 0.00 | 1.45 | 0.03 | 44 | 1010.9 |
| 20260510135340 | 23 | 215 | 9.7 | 24.1 | 0.00 | 1.45 | 0.03 | 43 | 1011.0 |
| 20260510134345 | 23 | 238 | 8.0 | 27.4 | 0.00 | 1.47 | 0.03 | 43 | 1011.1 |
| 20260510133346 | 23 | 259 | 8.0 | 29.0 | 0.00 | 1.47 | 0.03 | 43 | 1011.1 |
| 20260510132344 | 23 | 236 | 11.3 | 19.3 | 0.00 | 1.47 | 0.03 | 46 | 1011.2 |
| 20260510131348 | 23 | 278 | 9.7 | 24.1 | 0.00 | 1.47 | 0.03 | 45 | 1011.4 |
| 20260510130354 | 23 | 243 | 11.3 | 25.7 | 0.00 | 1.47 | 0.03 | 47 | 1011.5 |
| 20260510125346 | 23 | 246 | 14.5 | 27.4 | 0.00 | 1.47 | 0.03 | 46 | 1011.6 |
| 20260510124350 | 23 | 258 | 16.1 | 24.1 | 0.00 | 1.47 | 0.03 | 45 | 1011.6 |
| 20260510123352 | 23 | 268 | 17.7 | 24.1 | 0.00 | 1.47 | 0.03 | 44 | 1011.6 |
| 20260510122351 | 22 | 241 | 14.5 | 22.5 | 0.00 | 1.47 | 0.03 | 45 | 1011.9 |
| 20260510121353 | 23 | 255 | 17.7 | 22.5 | 0.00 | 1.47 | 0.03 | 42 | 1011.9 |
| 20260510120353 | 23 | 241 | 9.7 | 19.3 | 0.00 | 1.47 | 0.03 | 43 | 1012.0 |
| 20260510115352 | 22 | 232 | 12.9 | 25.7 | 0.00 | 1.47 | 0.03 | 46 | 1012.0 |
| 20260510114350 | 22 | 280 | 14.5 | 22.5 | 0.00 | 1.47 | 0.03 | 48 | 1012.2 |
| 20260510113340 | 22 | 239 | 8.0 | 20.9 | 0.00 | 1.47 | 0.03 | 49 | 1012.3 |
| 20260510112337 | 22 | 228 | 6.4 | 22.5 | 0.00 | 1.47 | 0.03 | 53 | 1012.4 |
| 20260510111358 | 22 | 317 | 12.9 | 22.5 | 0.00 | 1.47 | 0.03 | 54 | 1012.5 |
| 20260510110358 | 22 | 214 | 8.0 | 22.5 | 0.00 | 1.47 | 0.03 | 55 | 1012.6 |
| 20260510105356 | 21 | 249 | 9.7 | 27.4 | 0.00 | 1.47 | 0.03 | 56 | 1012.6 |
| 20260510104354 | 21 | 273 | 9.7 | 24.1 | 0.00 | 1.47 | 0.03 | 58 | 1012.7 |
| 20260510103357 | 21 | 276 | 14.5 | 22.5 | 0.00 | 1.47 | 0.03 | 58 | 1012.8 |
| 20260510102352 | 20 | 272 | 11.3 | 20.9 | 0.00 | 1.47 | 0.03 | 62 | 1012.8 |
| 20260510101354 | 20 | 245 | 12.9 | 22.5 | 0.00 | 1.47 | 0.03 | 63 | 1013.0 |
| 20260510100354 | 20 | 272 | 6.4 | 16.1 | 0.00 | 1.47 | 0.03 | 63 | 1013.0 |
| 20260510095352 | 20 | 234 | 11.3 | 17.7 | 0.00 | 1.47 | 0.03 | 63 | 1013.3 |
| 20260510094355 | 19 | 238 | 9.7 | 19.3 | 0.00 | 1.47 | 0.03 | 66 | 1013.2 |
| 20260510093356 | 19 | 258 | 11.3 | 22.5 | 0.00 | 1.47 | 0.03 | 66 | 1013.2 |
| 20260510092354 | 18 | 244 | 14.5 | 20.9 | 0.00 | 1.47 | 0.03 | 68 | 1013.3 |
| 20260510091338 | 18 | 258 | 16.1 | 27.4 | 0.00 | 1.47 | 0.03 | 68 | 1013.2 |
| 20260510090347 | 18 | 248 | 19.3 | 29.0 | 0.00 | 1.47 | 0.03 | 71 | 1013.2 |
| 20260510085348 | 18 | 238 | 6.4 | 22.5 | 0.00 | 1.47 | 0.03 | 75 | 1013.2 |
| 20260510084356 | 17 | 257 | 14.5 | 25.7 | 0.00 | 1.47 | 0.03 | 79 | 1013.2 |
| 20260510083341 | 17 | 257 | 12.9 | 24.1 | 0.00 | 1.47 | 0.03 | 93 | 1013.4 |
| 20260510082343 | 16 | 279 | 9.7 | 24.1 | 0.00 | 1.47 | 0.03 | 100 | 1013.4 |
| 20260510081352 | 16 | 228 | 19.3 | 27.4 | 0.00 | 1.47 | 0.03 | 100 | 1013.3 |
| 20260510080357 | 16 | 261 | 6.4 | 19.3 | 0.00 | 1.47 | 0.03 | 100 | 1013.3 |
| 20260510075350 | 15 | 289 | 4.8 | 20.9 | 0.00 | 1.47 | 0.03 | 100 | 1013.2 |
| 20260510074354 | 15 | 266 | 9.7 | 17.7 | 0.00 | 1.47 | 0.03 | 100 | 1013.3 |
| 20260510073342 | 14 | 243 | 3.2 | 8.0 | 0.00 | 1.47 | 0.03 | 100 | 1013.3 |
| 20260510072340 | 13 | 226 | 1.6 | 8.0 | 0.00 | 1.47 | 0.03 | 100 | 1013.3 |
| 20260510071345 | 13 | 236 | 3.2 | 8.0 | 0.00 | 1.47 | 0.03 | 100 | 1013.4 |
| 20260510070349 | 13 | 232 | 1.6 | 6.4 | 0.00 | 1.47 | 0.03 | 100 | 1013.3 |
| 20260510065346 | 12 | 226 | 4.8 | 9.7 | 0.00 | 1.47 | 0.03 | 100 | 1013.2 |
| 20260510064354 | 12 | 215 | 3.2 | 8.0 | 0.00 | 1.47 | 0.03 | 100 | 1013.1 |
| 20260510063342 | 12 | 211 | 4.8 | 6.4 | 0.00 | 1.47 | 0.03 | 100 | 1013.2 |
| 20260510062345 | 12 | 208 | 4.8 | 8.0 | 0.00 | 1.47 | 0.03 | 100 | 1013.2 |
| 20260510061350 | 12 | 212 | 4.8 | 8.0 | 0.00 | 1.47 | 0.03 | 100 | 1013.1 |
| 20260510060354 | 12 | 216 | 3.2 | 8.0 | 0.00 | 1.47 | 0.03 | 100 | 1013.1 |
| 20260510055352 | 12 | 218 | 1.6 | 4.8 | 0.00 | 1.47 | 0.03 | 100 | 1013.2 |
| 20260510054340 | 12 | 218 | 3.2 | 4.8 | 0.00 | 1.47 | 0.03 | 100 | 1013.2 |
| 20260510053350 | 12 | 218 | 1.6 | 6.4 | 0.00 | 1.47 | 0.03 | 100 | 1013.2 |
| 20260510052345 | 12 | 219 | 3.2 | 6.4 | 0.00 | 1.47 | 0.03 | 100 | 1013.2 |
| 20260510051353 | 11 | 238 | 1.6 | 6.4 | 0.00 | 1.47 | 0.03 | 100 | 1013.2 |
| 20260510050341 | 11 | 237 | 3.2 | 8.0 | 0.00 | 1.47 | 0.03 | 100 | 1013.2 |
| 20260510045339 | 11 | 223 | 1.6 | 6.4 | 0.00 | 1.47 | 0.03 | 100 | 1013.0 |
| 20260510044356 | 11 | 217 | 1.6 | 9.7 | 0.00 | 1.47 | 0.03 | 100 | 1012.9 |
| 20260510043341 | 11 | 230 | 6.4 | 9.7 | 0.00 | 1.47 | 0.03 | 100 | 1013.1 |
| 20260510042342 | 11 | 231 | 3.2 | 6.4 | 0.00 | 1.47 | 0.03 | 100 | 1013.1 |
| 20260510041347 | 12 | 228 | 1.6 | 6.4 | 0.00 | 1.47 | 0.03 | 100 | 1013.2 |
| 20260510040348 | 12 | 223 | 3.2 | 6.4 | 0.00 | 1.47 | 0.03 | 100 | 1013.2 |
| 20260510035354 | 12 | 223 | 1.6 | 6.4 | 0.00 | 1.47 | 0.03 | 100 | 1013.1 |
| 20260510034339 | 12 | 227 | 3.2 | 6.4 | 0.00 | 1.47 | 0.03 | 100 | 1013.1 |
| 20260510033347 | 12 | 223 | 1.6 | 6.4 | 0.00 | 1.47 | 0.03 | 100 | 1013.2 |
| 20260510032347 | 12 | 221 | 3.2 | 6.4 | 0.00 | 1.47 | 0.03 | 100 | 1013.2 |
| 20260510031353 | 12 | 221 | 3.2 | 4.8 | 0.00 | 1.47 | 0.03 | 100 | 1013.2 |
| 20260510030340 | 12 | 222 | 3.2 | 6.4 | 0.03 | 1.47 | 0.03 | 100 | 1013.2 |
| 20260510025339 | 12 | 223 | 3.2 | 6.4 | 0.03 | 1.47 | 0.03 | 100 | 1013.3 |
| 20260510024345 | 12 | 224 | 3.2 | 3.2 | 0.03 | 1.47 | 0.03 | 100 | 1013.5 |
| 20260510023353 | 12 | 223 | 1.6 | 4.8 | 0.03 | 1.47 | 0.03 | 100 | 1013.4 |
| 20260510022353 | 12 | 223 | 3.2 | 6.4 | 0.03 | 1.47 | 0.00 | 100 | 1013.7 |
| 20260510021342 | 12 | 204 | 0.0 | 0.0 | 0.03 | 1.47 | 0.00 | 100 | 1013.7 |
| 20260510020345 | 13 | 204 | 0.0 | 0.0 | 0.00 | 1.45 | 0.00 | 100 | 1013.4 |
| 20260510015349 | 13 | 203 | 0.0 | 4.8 | 0.00 | 1.45 | 0.00 | 100 | 1013.4 |
| 20260510014356 | 13 | 203 | 1.6 | 4.8 | 0.00 | 1.45 | 0.00 | 100 | 1013.4 |
| 20260510013338 | 13 | 201 | 0.0 | 0.0 | 0.00 | 1.45 | 0.00 | 100 | 1013.2 |
| 20260510012353 | 13 | 201 | 0.0 | 0.0 | 0.00 | 1.45 | 0.00 | 100 | 1013.2 |
| 20260510011357 | 13 | 201 | 0.0 | 1.6 | 0.00 | 1.45 | 0.00 | 100 | 1013.4 |
| 20260510010341 | 13 | 201 | 0.0 | 3.2 | 0.00 | 1.45 | 0.00 | 100 | 1013.2 |
| 20260510005349 | 13 | 201 | 0.0 | 1.6 | 0.00 | 1.45 | 0.00 | 100 | 1013.4 |
| 20260510004352 | 13 | 201 | 0.0 | 0.0 | 0.00 | 1.45 | 0.00 | 100 | 1013.5 |
| 20260510003352 | 13 | 201 | 0.0 | 0.0 | 0.00 | 1.45 | 0.00 | 100 | 1013.6 |
| 20260510002350 | 13 | 201 | 0.0 | 1.6 | 0.00 | 1.45 | 0.00 | 100 | 1013.7 |
| 20260510001354 | 13 | 201 | 0.0 | 1.6 | 0.00 | 1.45 | 0.00 | 100 | 1013.8 |
| 20260510000342 | 13 | 201 | 1.6 | 4.8 | 0.00 | 1.45 | 0.00 | 100 | 1014.0 |
| 20260509235349 | 13 | 201 | 0.0 | 4.8 | 0.00 | 1.45 | 0.00 | 100 | 1014.2 |
| 20260509234354 | 14 | 201 | 0.0 | 0.0 | 0.00 | 1.45 | 0.00 | 100 | 1014.1 |
| 20260509233338 | 14 | 201 | 0.0 | 0.0 | 0.00 | 1.45 | 0.00 | 100 | 1014.3 |
| 20260509232355 | 14 | 201 | 0.0 | 0.0 | 0.00 | 1.45 | 0.00 | 100 | 1014.4 |
| 20260509231344 | 14 | 201 | 0.0 | 3.2 | 0.00 | 1.45 | 0.00 | 100 | 1014.3 |
| 20260509230346 | 14 | 201 | 0.0 | 0.0 | 0.00 | 1.45 | 0.00 | 100 | 1014.3 |
| 20260509225348 | 14 | 201 | 0.0 | 0.0 | 0.00 | 1.45 | 0.00 | 100 | 1014.3 |
| 20260509224353 | 14 | 201 | 0.0 | 0.0 | 0.00 | 1.45 | 0.00 | 100 | 1014.4 |
| 20260509223334 | 14 | 201 | 0.0 | 4.8 | 0.00 | 1.45 | 0.00 | 100 | 1014.3 |
| 20260509222341 | 14 | 201 | 1.6 | 3.2 | 0.00 | 1.45 | 0.00 | 100 | 1014.4 |
| 20260509221346 | 14 | 201 | 1.6 | 4.8 | 0.00 | 1.45 | 0.00 | 100 | 1014.4 |
| 20260509220354 | 14 | 201 | 0.0 | 0.0 | 0.00 | 1.45 | 0.00 | 100 | 1014.3 |
| 20260509215352 | 14 | 201 | 0.0 | 0.0 | 0.00 | 1.45 | 1.45 | 100 | 1014.3 |
| 20260509214355 | 14 | 201 | 0.0 | 0.0 | 0.00 | 1.45 | 1.45 | 100 | 1014.4 |
| 20260509213344 | 14 | 201 | 0.0 | 3.2 | 0.00 | 1.45 | 1.45 | 100 | 1014.2 |
| 20260509212349 | 14 | 201 | 0.0 | 1.6 | 0.00 | 1.45 | 1.45 | 100 | 1014.2 |